Regional Weather Roundup
Issued by NWS

Home | Current Version | Previous Version | Graphics & Text | Print | Product List | Glossary On
Versions: 1 2 3 4 5 6 7 8 9 10 11 12 13 14 15 16 17 18 19 20 21 22 23 24 25 26 27 28 29 30 31 32 33 34 35 36 37 38 39 40 41 42 43 44 45 46 47 48 49 50
000
ASUS45 KPSR 201410
RWRAZ

ARIZONA HOURLY REGIONAL WEATHER ROUNDUP
NATIONAL WEATHER SERVICE PHOENIX AZ
700 AM MST TUE FEB 20 2018

NOTE: FAIR INDICATES FEW OR NO CLOUDS BELOW 12,000 FEET WITH NO
SIGNIFICANT WEATHER AND/OR OBSTRUCTIONS TO VISIBILITY.

AZZ001>003-036-201500-
NORTHWEST ARIZONA

CITY           SKY/WX    TMP DP  RH WIND       PRES   REMARKS
BULLHEAD CITY  CLEAR     41   9  26 NE5       30.09R
KINGMAN        CLEAR     20  10  65 SE8       30.00R WCI  10
$$

AZZ004>008-015-016-018-201500-
NORTH CENTRAL ARIZONA

CITY           SKY/WX    TMP DP  RH WIND       PRES   REMARKS
GRAND CANYON   PTCLDY    -9 -14  78 CALM      29.90R HAZE
WILLIAMS       CLEAR      3   0  85 S6        29.86R WCI  -8
PRESCOTT       CLEAR     18  11  74 S7        29.95R WCI   9
FLAGSTAFF      CLEAR      3  -1  83 CALM      29.88R
PAYSON         CLEAR     23  10  58 CALM      29.94R
PAGE           PTCLDY    26  10  50 SW5       29.93R WCI  20
$$

AZZ009>014-017-201500-
NORTHEAST ARIZONA

CITY           SKY/WX    TMP DP  RH WIND       PRES   REMARKS
WINSLOW        PTCLDY    18   7  62 SW10      29.95R WCI   6
SAINT JOHNS    LGT SNOW  23  21  92 NE6       29.94R FOG     WCI  16
WINDOW ROCK    CLOUDY    14   9  80 CALM      29.89R
SHOW LOW       CLOUDY    23  19  86 S5        29.93R WCI  17
$$

AZZ540-542>544-546-548-201500-
GREATER PHOENIX AREA

CITY           SKY/WX    TMP DP  RH WIND       PRES   REMARKS
PHOENIX        PTCLDY    43  15  32 W6        30.00R
BUCKEYE        PTCLDY    34  16  47 N7        30.03R WCI  28
GLENDALE       PTCLDY    36  21  55 CALM      30.04R
LUKE AFB       CLEAR     37  19  47 CALM      30.01R
DEER VALLEY    CLEAR     36  17  46 N3        29.99R
SCOTTSDALE     CLEAR     36  21  54 CALM      30.01R
MESA-FALCON    PTCLDY    43  18  36 W7        30.02R
MESA-GATEWAY   MOCLDY    45  12  26 W6        30.02R
CHANDLER       MOCLDY    46  12  25 CALM      30.01R
$$

AZZ539-553-201500-
SOUTHWEST MARICOPA COUNTY AND PINAL COUNTY

CITY           SKY/WX    TMP DP  RH WIND       PRES   REMARKS
CASA GRANDE      N/A     44  21  40 W6        30.02R
GILA BEND      FAIR      37  17  44 SE6       30.03R WCI  32
$$

AZZ503-504-507>509-201500-
SOUTHEAST ARIZONA

CITY           SKY/WX    TMP DP  RH WIND       PRES   REMARKS
TUCSON         PTCLDY    41  35  79 S8        30.02R
DAVIS-MONTHAN  PTCLDY    39  34  81 S8        30.00R WCI  34
RYAN FIELD     CLEAR     39  37  93 E3        30.03R
NOGALES        CLOUDY    42  38  85 W3        29.97R
SIERRA VISTA   CLOUDY    41  35  79 NW3       29.96S
DOUGLAS        CLOUDY    45  39  79 SW16      29.96R
SAFFORD        CLOUDY    40  26  57 NW16      29.94R WCI  31
$$

AZZ532-201500-
SOUTHWEST ARIZONA

CITY           SKY/WX    TMP DP  RH WIND       PRES   REMARKS
YUMA           CLEAR     43  17  35 N3        30.07R
$$

CAZ041-043-047-048-061-525>527-560>570-201500-
SOUTHERN CALIFORNIA

CITY           SKY/WX    TMP DP  RH WIND       PRES   REMARKS
DOWNTOWN L.A.  CLEAR     42  18  37 CALM      30.09R
L.A. AIRPORT   CLEAR     45  16  31 N6        30.10R
SAN DIEGO      PTCLDY    46  31  55 E5        30.12R
BURBANK        CLEAR     38  16  40 W3        30.08R
ONTARIO        CLEAR     36  18  48 N3        30.09R
RIVERSIDE      CLEAR     34  19  54 NE7       30.10R WCI  28
PALM SPRINGS   CLEAR     43  15  32 CALM      30.11R
EL CENTRO NAS  CLEAR     36  17  46 MISG      30.10R
IMPERIAL       CLEAR     37  22  54 W5        30.08R WCI  33
BLYTHE         CLEAR     38   9  30 NW5       30.08R WCI  34
NEEDLES        CLEAR     38   2  22 NW5       30.08R WCI  34
$$

NVZ020-UTZ003-201500-
SOUTHERN NEVADA-UTAH

CITY           SKY/WX    TMP DP  RH WIND       PRES   REMARKS
LAS VEGAS      CLEAR     37   6  27 NW9       30.05R WCI  30
SALT LAKE CITY LGT SNOW  21  17  84 S3        29.98R FOG
$$

NMZ009-TXZ055-201500-
NEW MEXICO-WEST TEXAS

CITY           SKY/WX    TMP DP  RH WIND       PRES   REMARKS
ALBUQUERQUE    CLOUDY    29  16  58 N7        29.95R WCI  22
EL PASO        PTCLDY    53  31  42 W22G37    29.91R
$$


........................KEY........................
SKY/WX - SKY CONDITION/WEATHER
TMP    - TEMPERATURE IN FAHRENHEIT
DP     - DEW POINT IN FAHRENHEIT
RH     - RELATIVE HUMIDITY IN PERCENT
WIND   - DIRECTION AND SPEED IN MILES PER HOUR (MPH)
VRB    - VARIABLE WIND DIRECTION
PRES   - MEAN SEA LEVEL PRESSURE IN INCHES OF MERCURY
         F - FALLING PRESSURE   R - RISING PRESSURE
         S - STEADY PRESSURE
VSB    - VISIBILITY IN MILES
HX     - HEAT INDEX IN FAHRENHEIT
WCI    - WIND CHILL INDEX IN FAHRENHEIT
TC     - TEMPERATURE IN CELSIUS WHICH IS ALSO KNOWN AS
         TEMPERATURE IN CENTIGRADE
AFB    - AIR FORCE BASE
         LUKE AFB IS LUKE AIR FORCE BASE
         DAVIS-MONTHAN IS DAVIS-MONTHAN AIR FORCE BASE
NAS    - NAVAL AIR STATION
         EL CENTRO NAS IS EL CENTRO NAVAL AIR STATION
N/A    - NOT AVAILABLE




USA.gov is the U.S. government's official web portal to all federal, state and local government web resources and services.